Time,TemperatureF,DewpointF,PressureIn,WindDirection,WindDirectionDegrees,WindSpeedMPH,WindSpeedGustMPH,Humidity,HourlyPrecipIn,Conditions,Clouds,dailyrainin,SolarRadiationWatts/m^2,SoftwareType,DateUTC
2013-02-02 00:12:00,29.0,22.0,-100.00,West,266,5.0,12.0,75,0.00,,,0.00,0.000000,,2013-02-02 06:12:00,
2013-02-02 00:22:00,29.0,22.0,-100.00,West,266,5.0,12.0,75,0.00,,,0.00,0.000000,,2013-02-02 06:22:00,
2013-02-02 00:32:00,29.0,22.0,-100.00,West,266,5.0,12.0,75,0.00,,,0.00,0.000000,,2013-02-02 06:32:00,
2013-02-02 00:41:00,29.0,22.0,-100.00,West,266,5.0,12.0,75,0.00,,,0.00,0.000000,,2013-02-02 06:41:00,
2013-02-02 01:12:00,29.0,24.0,-100.00,West,260,3.0,10.0,80,0.00,,,0.00,0.000000,,2013-02-02 07:12:00,
2013-02-02 01:21:00,29.0,24.0,-100.00,West,260,3.0,10.0,80,0.00,,,0.00,0.000000,,2013-02-02 07:21:00,
2013-02-02 01:31:00,29.0,24.0,-100.00,West,260,3.0,10.0,80,0.00,,,0.00,0.000000,,2013-02-02 07:31:00,
2013-02-02 01:42:00,29.0,24.0,-100.00,West,260,3.0,10.0,80,0.00,,,0.00,0.000000,,2013-02-02 07:42:00,
2013-02-02 02:11:00,28.0,22.0,-100.00,NNW,331,4.0,9.0,79,0.00,,,0.00,0.000000,,2013-02-02 08:11:00,
2013-02-02 02:21:00,28.0,22.0,-100.00,NNW,331,4.0,9.0,79,0.00,,,0.00,0.000000,,2013-02-02 08:21:00,
2013-02-02 02:31:00,28.0,22.0,-100.00,NNW,331,4.0,9.0,79,0.00,,,0.00,0.000000,,2013-02-02 08:31:00,
2013-02-02 02:41:00,28.0,22.0,-100.00,NNW,331,4.0,9.0,79,0.00,,,0.00,0.000000,,2013-02-02 08:41:00,
2013-02-02 03:11:00,27.0,20.0,-100.00,NNW,329,6.0,13.0,75,0.00,,,0.00,0.000000,,2013-02-02 09:11:00,
2013-02-02 03:22:00,27.0,20.0,-100.00,NNW,329,6.0,13.0,75,0.00,,,0.00,0.000000,,2013-02-02 09:22:00,
2013-02-02 03:31:00,27.0,20.0,-100.00,NNW,329,6.0,13.0,75,0.00,,,0.00,0.000000,,2013-02-02 09:31:00,
2013-02-02 03:41:00,27.0,20.0,-100.00,NNW,329,6.0,13.0,75,0.00,,,0.00,0.000000,,2013-02-02 09:41:00,
2013-02-02 04:11:00,27.0,20.0,-100.00,NW,319,5.0,9.0,76,0.00,,,0.00,0.000000,,2013-02-02 10:11:00,
2013-02-02 04:21:00,27.0,20.0,-100.00,NW,319,5.0,9.0,76,0.00,,,0.00,0.000000,,2013-02-02 10:21:00,
2013-02-02 04:32:00,27.0,20.0,-100.00,NW,319,5.0,9.0,76,0.00,,,0.00,0.000000,,2013-02-02 10:32:00,
2013-02-02 04:42:00,27.0,20.0,-100.00,NW,319,5.0,9.0,76,0.00,,,0.00,0.000000,,2013-02-02 10:42:00,
2013-02-02 05:11:00,25.0,19.0,-100.00,NW,319,3.0,12.0,78,0.00,,,0.00,0.000000,,2013-02-02 11:11:00,
2013-02-02 05:21:00,25.0,19.0,-100.00,NW,319,3.0,12.0,78,0.00,,,0.00,0.000000,,2013-02-02 11:21:00,
2013-02-02 05:32:00,25.0,19.0,-100.00,NW,319,3.0,12.0,78,0.00,,,0.00,0.000000,,2013-02-02 11:32:00,
2013-02-02 05:42:00,25.0,19.0,-100.00,NW,319,3.0,12.0,78,0.00,,,0.00,0.000000,,2013-02-02 11:42:00,
2013-02-02 06:11:00,24.0,19.0,-100.00,North,8,3.0,7.0,80,0.00,,,0.00,0.000000,,2013-02-02 12:11:00,
2013-02-02 06:22:00,24.0,19.0,-100.00,North,8,3.0,7.0,80,0.00,,,0.00,0.000000,,2013-02-02 12:22:00,
2013-02-02 06:32:00,24.0,19.0,-100.00,North,8,3.0,7.0,80,0.00,,,0.00,0.000000,,2013-02-02 12:32:00,
2013-02-02 06:42:00,24.0,19.0,-100.00,North,8,3.0,7.0,80,0.00,,,0.00,0.000000,,2013-02-02 12:42:00,
2013-02-02 07:11:00,23.0,18.0,-100.00,NNW,331,4.0,11.0,81,0.00,,,0.00,0.000000,,2013-02-02 13:11:00,
2013-02-02 07:21:00,23.0,18.0,-100.00,NNW,331,4.0,11.0,81,0.00,,,0.00,0.000000,,2013-02-02 13:21:00,
2013-02-02 07:32:00,23.0,18.0,-100.00,NNW,331,4.0,11.0,81,0.00,,,0.00,0.000000,,2013-02-02 13:32:00,
2013-02-02 07:42:00,23.0,18.0,-100.00,NNW,331,4.0,11.0,81,0.00,,,0.00,0.000000,,2013-02-02 13:42:00,
2013-02-02 08:11:00,23.0,18.0,-100.00,NNE,21,3.0,9.0,81,0.00,,,0.00,0.000000,,2013-02-02 14:11:00,
2013-02-02 08:22:00,23.0,18.0,-100.00,NNE,21,3.0,9.0,81,0.00,,,0.00,0.000000,,2013-02-02 14:22:00,
2013-02-02 08:32:00,23.0,18.0,-100.00,NNE,21,3.0,9.0,81,0.00,,,0.00,0.000000,,2013-02-02 14:32:00,
2013-02-02 08:42:00,23.0,18.0,-100.00,NNE,21,3.0,9.0,81,0.00,,,0.00,0.000000,,2013-02-02 14:42:00,
2013-02-02 09:12:00,23.0,17.0,-100.00,NNE,17,3.0,8.0,78,0.00,,,0.00,33.000000,,2013-02-02 15:12:00,
2013-02-02 09:22:00,23.0,17.0,-100.00,NNE,17,3.0,8.0,78,0.00,,,0.00,33.000000,,2013-02-02 15:22:00,
2013-02-02 09:32:00,23.0,17.0,-100.00,NNE,17,3.0,8.0,78,0.00,,,0.00,33.000000,,2013-02-02 15:32:00,
2013-02-02 09:42:00,23.0,17.0,-100.00,NNE,17,3.0,8.0,78,0.00,,,0.00,33.000000,,2013-02-02 15:42:00,
2013-02-02 10:11:00,24.0,17.0,-100.00,North,9,4.0,9.0,73,0.00,,,0.00,100.000000,,2013-02-02 16:11:00,
2013-02-02 10:22:00,24.0,17.0,-100.00,North,9,4.0,9.0,73,0.00,,,0.00,100.000000,,2013-02-02 16:22:00,
2013-02-02 10:32:00,24.0,17.0,-100.00,North,9,4.0,9.0,73,0.00,,,0.00,100.000000,,2013-02-02 16:32:00,
2013-02-02 10:42:00,24.0,17.0,-100.00,North,9,4.0,9.0,73,0.00,,,0.00,100.000000,,2013-02-02 16:42:00,
2013-02-02 11:11:00,25.0,17.0,-100.00,North,10,3.0,7.0,70,0.00,,,0.00,217.000000,,2013-02-02 17:11:00,
2013-02-02 11:22:00,25.0,17.0,-100.00,North,10,3.0,7.0,70,0.00,,,0.00,217.000000,,2013-02-02 17:22:00,
2013-02-02 11:32:00,25.0,17.0,-100.00,North,10,3.0,7.0,70,0.00,,,0.00,217.000000,,2013-02-02 17:32:00,
2013-02-02 11:42:00,25.0,17.0,-100.00,North,10,3.0,7.0,70,0.00,,,0.00,217.000000,,2013-02-02 17:42:00,
2013-02-02 12:12:00,26.0,17.0,-100.00,North,3,2.0,6.0,67,0.00,,,0.00,193.000000,,2013-02-02 18:12:00,
2013-02-02 12:22:00,26.0,17.0,-100.00,North,3,2.0,6.0,67,0.00,,,0.00,193.000000,,2013-02-02 18:22:00,
2013-02-02 12:32:00,26.0,17.0,-100.00,North,3,2.0,6.0,67,0.00,,,0.00,193.000000,,2013-02-02 18:32:00,
2013-02-02 12:42:00,26.0,17.0,-100.00,North,3,2.0,6.0,67,0.00,,,0.00,193.000000,,2013-02-02 18:42:00,
2013-02-02 13:12:00,28.0,20.0,-100.00,South,180,4.0,6.0,70,0.00,,,0.00,230.000000,,2013-02-02 19:12:00,
2013-02-02 13:21:00,28.0,20.0,-100.00,South,180,4.0,6.0,70,0.00,,,0.00,230.000000,,2013-02-02 19:21:00,
2013-02-02 13:32:00,28.0,20.0,-100.00,South,180,4.0,6.0,70,0.00,,,0.00,230.000000,,2013-02-02 19:32:00,
2013-02-02 13:42:00,28.0,20.0,-100.00,South,180,4.0,6.0,70,0.00,,,0.00,230.000000,,2013-02-02 19:42:00,
2013-02-02 14:11:00,29.0,21.0,-100.00,South,183,3.0,8.0,72,0.00,,,0.00,173.000000,,2013-02-02 20:11:00,
2013-02-02 14:21:00,29.0,21.0,-100.00,South,183,3.0,8.0,72,0.00,,,0.00,173.000000,,2013-02-02 20:21:00,
2013-02-02 14:32:00,29.0,21.0,-100.00,South,183,3.0,8.0,72,0.00,,,0.00,173.000000,,2013-02-02 20:32:00,
2013-02-02 14:42:00,29.0,21.0,-100.00,South,183,3.0,8.0,72,0.00,,,0.00,173.000000,,2013-02-02 20:42:00,
2013-02-02 15:11:00,31.0,22.0,-100.00,South,188,6.0,11.0,69,0.00,,,0.00,166.000000,,2013-02-02 21:11:00,
2013-02-02 15:21:00,31.0,22.0,-100.00,South,188,6.0,11.0,69,0.00,,,0.00,166.000000,,2013-02-02 21:21:00,
2013-02-02 15:32:00,31.0,22.0,-100.00,South,188,6.0,11.0,69,0.00,,,0.00,166.000000,,2013-02-02 21:32:00,
2013-02-02 15:42:00,31.0,22.0,-100.00,South,188,6.0,11.0,69,0.00,,,0.00,166.000000,,2013-02-02 21:42:00,
2013-02-02 16:12:00,35.0,25.0,-100.00,South,170,5.0,9.0,66,0.00,,,0.00,309.000000,,2013-02-02 22:12:00,
2013-02-02 16:21:00,35.0,25.0,-100.00,South,170,5.0,9.0,66,0.00,,,0.00,309.000000,,2013-02-02 22:21:00,
2013-02-02 16:32:00,35.0,25.0,-100.00,South,170,5.0,9.0,66,0.00,,,0.00,309.000000,,2013-02-02 22:32:00,
2013-02-02 16:42:00,35.0,25.0,-100.00,South,170,5.0,9.0,66,0.00,,,0.00,309.000000,,2013-02-02 22:42:00,
2013-02-02 17:11:00,34.0,26.0,-100.00,South,186,5.0,10.0,72,0.00,,,0.00,209.000000,,2013-02-02 23:11:00,
2013-02-02 17:21:00,34.0,26.0,-100.00,South,186,5.0,10.0,72,0.00,,,0.00,209.000000,,2013-02-02 23:21:00,
2013-02-02 17:32:00,34.0,26.0,-100.00,South,186,5.0,10.0,72,0.00,,,0.00,209.000000,,2013-02-02 23:32:00,
2013-02-02 17:42:00,34.0,26.0,-100.00,South,186,5.0,10.0,72,0.00,,,0.00,209.000000,,2013-02-02 23:42:00,
2013-02-02 18:11:00,32.0,26.0,-100.00,SSW,194,3.0,7.0,78,0.00,,,0.00,18.000000,,2013-02-03 00:11:00,
2013-02-02 18:22:00,32.0,26.0,-100.00,SSW,194,3.0,7.0,78,0.00,,,0.00,18.000000,,2013-02-03 00:22:00,
2013-02-02 18:32:00,32.0,26.0,-100.00,SSW,194,3.0,7.0,78,0.00,,,0.00,18.000000,,2013-02-03 00:32:00,
2013-02-02 18:42:00,32.0,26.0,-100.00,SSW,194,3.0,7.0,78,0.00,,,0.00,18.000000,,2013-02-03 00:42:00,
2013-02-02 19:11:00,32.0,29.0,-100.00,SSW,207,5.0,9.0,87,0.00,,,0.00,0.000000,,2013-02-03 01:11:00,
2013-02-02 19:21:00,32.0,29.0,-100.00,SSW,207,5.0,9.0,87,0.00,,,0.00,0.000000,,2013-02-03 01:21:00,
2013-02-02 19:32:00,32.0,29.0,-100.00,SSW,207,5.0,9.0,87,0.00,,,0.00,0.000000,,2013-02-03 01:32:00,
2013-02-02 19:42:00,32.0,29.0,-100.00,SSW,207,5.0,9.0,87,0.00,,,0.00,0.000000,,2013-02-03 01:42:00,
2013-02-02 20:11:00,35.0,31.0,-100.00,West,272,5.0,10.0,85,0.00,,,0.00,0.000000,,2013-02-03 02:11:00,
2013-02-02 20:21:00,35.0,31.0,-100.00,West,272,5.0,10.0,85,0.00,,,0.00,0.000000,,2013-02-03 02:21:00,
2013-02-02 20:32:00,35.0,31.0,-100.00,West,272,5.0,10.0,85,0.00,,,0.00,0.000000,,2013-02-03 02:32:00,
2013-02-02 20:42:00,35.0,31.0,-100.00,West,272,5.0,10.0,85,0.00,,,0.00,0.000000,,2013-02-03 02:42:00,
2013-02-02 21:11:00,37.0,30.0,-100.00,NW,306,6.0,11.0,75,0.01,,,0.01,0.000000,,2013-02-03 03:11:00,
2013-02-02 21:21:00,37.0,30.0,-100.00,NW,306,6.0,11.0,75,0.01,,,0.01,0.000000,,2013-02-03 03:21:00,
2013-02-02 21:32:00,37.0,30.0,-100.00,NW,306,6.0,11.0,75,0.01,,,0.01,0.000000,,2013-02-03 03:32:00,
2013-02-02 21:42:00,37.0,30.0,-100.00,NW,306,6.0,11.0,75,0.01,,,0.01,0.000000,,2013-02-03 03:42:00,
2013-02-02 22:11:00,37.0,29.0,-100.00,NW,317,6.0,15.0,72,0.00,,,0.01,0.000000,,2013-02-03 04:11:00,
2013-02-02 22:21:00,37.0,29.0,-100.00,NW,317,6.0,15.0,72,0.00,,,0.01,0.000000,,2013-02-03 04:21:00,
2013-02-02 22:32:00,37.0,29.0,-100.00,NW,317,6.0,15.0,72,0.00,,,0.01,0.000000,,2013-02-03 04:32:00,
2013-02-02 22:42:00,37.0,29.0,-100.00,NW,317,6.0,15.0,72,0.00,,,0.01,0.000000,,2013-02-03 04:42:00,
2013-02-02 23:12:00,36.0,28.0,-100.00,NW,321,9.0,25.0,71,0.00,,,0.01,0.000000,,2013-02-03 05:12:00,
2013-02-02 23:22:00,36.0,28.0,-100.00,NW,321,9.0,25.0,71,0.00,,,0.01,0.000000,,2013-02-03 05:22:00,
2013-02-02 23:32:00,36.0,28.0,-100.00,NW,321,9.0,25.0,71,0.00,,,0.01,0.000000,,2013-02-03 05:32:00,
2013-02-02 23:42:00,36.0,28.0,-100.00,NW,321,9.0,25.0,71,0.00,,,0.01,0.000000,,2013-02-03 05:42:00,